Fallon, NV

9:45 AM PDT on August 25, 2016 (GMT -0700)
Fallon Naval Air Station

Weather History for KNFL - October, 2015

Change the Weather History Date:

Tuesday, October 6, 2015

  Actual Average Record
Temperature  
Mean Temperature 63 °F -  
Max Temperature 79 °F 74 °F 88 °F (1964)
Min Temperature 48 °F 35 °F 23 °F (1941)
Degree Days  
Heating Degree Days 2    
Growing Degree Days 13 (Base 50)    
Moisture  
Dew Point 44 °F    
Average Humidity 58    
Maximum Humidity 86    
Minimum Humidity 25    
Precipitation  
Precipitation 0.00 in - - ()
Sea Level Pressure  
Sea Level Pressure 30.04 in    
Wind  
Wind Speed 6 mph (SSE)    
Max Wind Speed 10 mph    
Max Gust Speed -    
Visibility 10 miles    
Events      
Averages and records for this station are not official NWS values.
T = Trace of Precipitation, MM = Missing Value Source: NWS Daily Summary

Daily Weather History Graph

Daily Weather History Graph

Search for Another Location

Airport or City:

Trip Planner

Search our weather history database for the weather conditions in past years. The results will help you decide how hot, cold, wet, or windy it might be!

Date:

Astronomy

Oct. 06, 2015 Rise Set
Actual Time 6:55 AM PDT 6:29 PM PDT
Civil Twilight 6:28 AM PDT 6:56 PM PDT
Nautical Twilight 5:57 AM PDT 7:27 PM PDT
Astronomical Twilight 5:26 AM PDT 7:58 PM PDT
Moon 1:07 AM PDT (10/6) 3:15 PM PDT (10/6)
Length of Visible Light 12h 27m
Length of Day
11h 34m
Waning Crescent, 31% of the Moon is Illuminated
Oct 6
Waning Crescent
Oct 12
New
Oct 20
First Quarter
Oct 27
Full
Nov 3
Last Quarter

Hourly Weather History & Observations

Time (PDT) Temp. Dew Point Humidity Pressure Visibility Wind Dir Wind Speed Gust Speed Precip Events Conditions
12:56 AM 53.1 °F 46.9 °F 80% 29.96 in 10.0 mi SSE 5.8 mph - N/A   Clear
1:56 AM 51.1 °F 46.0 °F 83% 29.97 in 10.0 mi South 6.9 mph - N/A   Clear
2:56 AM 52.0 °F 46.0 °F 80% 29.99 in 10.0 mi SSE 9.2 mph - N/A   Clear
3:56 AM 51.1 °F 45.0 °F 80% 29.99 in 10.0 mi SE 5.8 mph - N/A   Clear
4:56 AM 50.0 °F 45.0 °F 83% 30.00 in 10.0 mi South 5.8 mph - N/A   Clear
5:56 AM 48.9 °F 44.1 °F 83% 30.02 in 10.0 mi SSE 8.1 mph - N/A   Clear
6:17 AM 48.0 °F 44.1 °F 86% 30.13 in 10.0 mi SSE 6.9 mph - N/A   Partly Cloudy
6:56 AM 48.0 °F 44.1 °F 86% 30.04 in 10.0 mi SSE 8.1 mph - N/A   Partly Cloudy
7:56 AM 54.0 °F 46.0 °F 75% 30.06 in 10.0 mi SE 4.6 mph - N/A   Partly Cloudy
8:56 AM 59.0 °F 46.9 °F 64% 30.08 in 10.0 mi South 3.5 mph - N/A   Scattered Clouds
9:56 AM 63.0 °F 46.0 °F 54% 30.08 in 10.0 mi Variable 3.5 mph - N/A   Scattered Clouds
10:56 AM 66.0 °F 45.0 °F 47% 30.08 in 10.0 mi Variable 3.5 mph - N/A   Scattered Clouds
11:56 AM 69.1 °F 44.1 °F 40% 30.07 in 10.0 mi WSW 6.9 mph - N/A   Scattered Clouds
12:56 PM 72.0 °F 45.0 °F 38% 30.06 in 10.0 mi WNW 4.6 mph - N/A   Scattered Clouds
1:56 PM 73.9 °F 43.0 °F 33% 30.05 in 10.0 mi North - - N/A   Scattered Clouds
2:56 PM 77.0 °F 39.9 °F 26% 30.03 in 10.0 mi North 10.4 mph - N/A   Scattered Clouds
3:56 PM 78.1 °F 39.9 °F 25% 30.02 in 10.0 mi NNE 9.2 mph - N/A   Scattered Clouds
4:56 PM 78.1 °F 39.0 °F 25% 30.02 in 10.0 mi ENE 5.8 mph - N/A   Scattered Clouds
5:56 PM 75.9 °F 39.0 °F 26% 30.01 in 10.0 mi East 3.5 mph - N/A   Scattered Clouds
6:56 PM 70.0 °F 42.1 °F 36% 30.02 in 10.0 mi East 3.5 mph - N/A   Scattered Clouds
7:56 PM 66.0 °F 44.1 °F 45% 30.02 in 10.0 mi South 5.8 mph - N/A   Partly Cloudy
8:56 PM 61.0 °F 46.9 °F 60% 30.03 in 10.0 mi South 3.5 mph - N/A   Clear
9:56 PM 60.1 °F 46.0 °F 60% 30.04 in 10.0 mi SW 5.8 mph - N/A   Clear
10:56 PM 57.0 °F 46.0 °F 67% 30.06 in 10.0 mi South 6.9 mph - N/A   Clear
11:56 PM 55.9 °F 46.0 °F 69% 30.05 in 10.0 mi South 4.6 mph - N/A   Clear